Meridian, MS

1:51 AM CST on December 10, 2019 (GMT -0600)
Key

Weather History for KMEI - October, 2019

Change the Weather History Date:

Tuesday, October 1, 2019

  Actual Average Record
Temperature  
Mean Temperature 84 °F 70 °F  
Max Temperature 99 °F 82 °F 95 °F (1954)
Min Temperature 68 °F 57 °F 40 °F (1967)
Degree Days  
Heating Degree Days 0 1  
Month to date heating degree days 1  
Since 1 July heating degree days 8  
Cooling Degree Days 18 6  
Month to date cooling degree days 6  
Year to date cooling degree days 1929  
Growing Degree Days 34 (Base 50)    
Moisture  
Dew Point 67 °F    
Average Humidity 64    
Maximum Humidity 90    
Minimum Humidity 33    
Precipitation  
Precipitation 0.00 in 0.11 in 1.07 in (1988)
Month to date precipitation 0.11  
Year to date precipitation 42.50  
Sea Level Pressure  
Sea Level Pressure 30.03 in    
Wind  
Wind Speed 1 mph ()    
Max Wind Speed 6 mph    
Max Gust Speed -    
Visibility 10.0 miles    
Events      
T = Trace of Precipitation, MM = Missing Value Source: Averaged Metar Reports

Daily Weather History Graph

Daily Weather History Graph

Search for Another Location

Airport or City:

Astronomy

Oct. 01, 2019 Rise Set
Actual Time 6:48 AM CDT 6:40 PM CDT
Civil Twilight 6:24 AM CDT 7:04 PM CDT
Nautical Twilight 5:55 AM CDT 7:32 PM CDT
Astronomical Twilight 5:27 AM CDT 8:01 PM CDT
Moon 9:55 AM CDT (10/1) 9:04 PM CDT (10/1)
Length of Visible Light 12h 40m
Length of Day
11h 51m
Waxing Crescent, 12% of the Moon is Illuminated
Oct 1
Waxing Crescent
Oct 5
First Quarter
Oct 13
Full
Oct 21
Last Quarter
Oct 27
New

Hourly Weather History & Observations

Time (CDT) Temp. Heat Index Dew Point Humidity Pressure Visibility Wind Dir Wind Speed Gust Speed Precip Events Conditions
12:58 AM 73.0 °F - 66.9 °F 81% 30.04 in 10.0 mi Calm Calm - N/A   Clear
1:58 AM 71.1 °F - 66.0 °F 84% 30.03 in 10.0 mi Calm Calm - N/A   Clear
2:58 AM 70.0 °F - 66.0 °F 87% 30.03 in 10.0 mi Calm Calm - N/A   Clear
3:58 AM 69.1 °F - 64.9 °F 87% 30.02 in 10.0 mi Calm Calm - N/A   Clear
4:58 AM 68.0 °F - 64.9 °F 90% 30.04 in 10.0 mi Calm Calm - N/A   Clear
5:58 AM 68.0 °F - 64.9 °F 90% 30.06 in 10.0 mi Calm Calm - N/A   Clear
6:58 AM 68.0 °F - 64.9 °F 90% 30.07 in 10.0 mi Calm Calm - N/A   Clear
7:58 AM 73.0 °F - 66.9 °F 81% 30.09 in 10.0 mi Calm Calm - N/A   Clear
8:58 AM 81.0 °F 84.1 °F 69.1 °F 67% 30.10 in 10.0 mi Calm Calm - N/A   Clear
9:58 AM 89.1 °F 92.9 °F 68.0 °F 50% 30.11 in 10.0 mi Variable 3.5 mph - N/A   Clear
10:58 AM 93.9 °F 98.6 °F 68.0 °F 43% 30.09 in 10.0 mi Variable 5.8 mph - N/A   Clear
11:58 AM 96.1 °F 99.9 °F 66.9 °F 38% 30.08 in 10.0 mi SE 5.8 mph - N/A   Clear
12:58 PM 98.1 °F 102.4 °F 66.9 °F 36% 30.06 in 10.0 mi Calm Calm - N/A   Partly Cloudy
1:58 PM 97.0 °F 100.4 °F 66.0 °F 36% 30.03 in 10.0 mi South 4.6 mph - N/A   Clear
2:58 PM 99.0 °F 102.9 °F 66.0 °F 34% 30.00 in 10.0 mi SSW 5.8 mph - N/A   Clear
3:58 PM 99.0 °F 102.3 °F 64.9 °F 33% 29.99 in 10.0 mi South 4.6 mph - N/A   Clear
4:58 PM 99.0 °F 102.3 °F 64.9 °F 33% 29.98 in 10.0 mi NW 5.8 mph - N/A   Mostly Cloudy
5:58 PM 91.9 °F 96.9 °F 69.1 °F 47% 29.98 in 10.0 mi North 4.6 mph - N/A   Partly Cloudy
6:58 PM 86.0 °F 91.5 °F 71.1 °F 61% 29.98 in 10.0 mi Calm Calm - N/A   Mostly Cloudy
7:58 PM 82.9 °F 87.5 °F 71.1 °F 67% 29.99 in 10.0 mi Calm Calm - N/A   Scattered Clouds
8:58 PM 80.1 °F 83.6 °F 71.1 °F 74% 29.99 in 10.0 mi Calm Calm - N/A   Clear
9:58 PM 78.1 °F - 70.0 °F 76% 29.99 in 10.0 mi Calm Calm - N/A   Clear
10:58 PM 77.0 °F - 70.0 °F 79% 29.99 in 10.0 mi Calm Calm - N/A   Clear
11:58 PM 75.9 °F - 70.0 °F 82% 29.99 in 10.0 mi SSW 3.5 mph - N/A   Scattered Clouds